Other Surface Observations
Issued by NWS Tucson, AZ

Home | Current Version | Previous Version | Text Only | Print | Product List | Glossary On
Versions: 1 2 3 4 5 6 7 8 9 10 11 12 13 14 15 16 17 18 19 20 21 22 23 24 25 26 27 28 29 30 31 32 33 34 35 36 37 38 39 40 41 42 43 44 45 46 47 48 49 50
000
SXUS55 KTWC 220016
OSOTWC

WEATHER ROUNDUP FOR SOUTHEAST ARIZONA
NATIONAL WEATHER SERVICE TUCSON AZ
515 PM MST SUN SEP 21 2014

AZZ504>506-514-220115-
LOCATION       SKY/WX    TMP DP  RH WIND       PRES   REMARKS
TUCSON         MOSUNNY   93  59  31 VRB5      29.95S
DAVIS-MONTHAN  MOSUNNY   91  63  39 VRB6      29.94S
CHILDRENS PARK N/A       94  60  32 W4                PIMA CO DEQ
ALVERNON/22ND  N/A      N/A N/A N/A N/A               PIMA CO DEQ
CHERRY/GLENN   N/A      N/A N/A N/A N/A               PIMA CO DEQ
TANGERINE      N/A       93 N/A N/A W7                PIMA CO DEQ
CONTL RANCH    N/A       95  60  31 NW5               PIMA CO DEQ
GRANT/1ST      N/A       94  60  32 W4                PIMA CO DEQ
CRAYCROFT/22ND N/A      N/A N/A N/A N/A               PIMA CO DEQ
GOLFLINKS/KOLB N/A       93  61  35 W3                PIMA CO DEQ
AJO/12TH       N/A       92  60  34 NW4               PIMA CO DEQ
SAGUARO EAST   N/A      N/A N/A N/A N/A               PIMA CO DEQ
FAIRGROUNDS    N/A       89 N/A N/A N4                PIMA CO DEQ
SAGUARO        N/A       94  61  34 W5G11             *SABINO CYN
SAN CARLOS     N/A       90  62  39 SE5G10            *SAN CARLOS
GREEN VALLEY   N/A       88  64  45 SE5               PIMA CO DEQ
HORSE CAMP CYN N/A       84  62  48 SE10G19           *ARAVAIPA CYN
RINCON MTNS    N/A       65  60  83 SW2               *NR MANNING CAMP
$$

AZZ509>511-220115-
LOCATION       SKY/WX    TMP DP  RH WIND       PRES   REMARKS
SAFFORD        PTSUNNY   81  69  67 E6        29.98F
STRAY HORSE    N/A       64  58  81 N2G12             *
TRAIL CABIN    N/A       72  56  58 SE10G17           *N OF GRANVILLE
BLACK HILLS    N/A       86  62  44 SE7G18            *N OF FT THOMAS
DRY LAKE       N/A       68  63  84 S3                *NATANES MTNS
NOON CREEK     N/A       73  68  84 SW5G10            *PINALENO MTNS
COLUMBINE      N/A       63  55  76 S3                *PINALENO MTNS
GUTHRIE        N/A       69  59  71 E5G16             *SW OF GUTHRIE
$$

AZZ502-503-513-220115-
LOCATION       SKY/WX    TMP DP  RH WIND       PRES   REMARKS
NOGALES        LGT RAIN  72  66  81 SE7       30.06S
SELLS          N/A       93  57  30 W6G11             *
SASABE         N/A       90  61  38 W6G10             *ALTAR VLY
HOPKINS        N/A       67  64  89 CALM              *SANTA RITA MTNS
CARR CYN       N/A       73  62  69 E2                *W OF HEREFORD
$$

AZZ507-508-512-220115-
LOCATION       SKY/WX    TMP DP  RH WIND       PRES   REMARKS
SIERRA VISTA   TSTM      68  65  90 SW10      30.12S FOG
DOUGLAS        CLOUDY    81  62  52 N3        30.07R
EMPIRE MTNS    N/A       81  63  55 E4G10             *LAS CIENEGAS NCA
MULESHOE RANCH N/A       85  60  43 W3G11             *PRESERVE
HEADQUARTERS   N/A       72  62  70 NE4G10            *CHIRICAHUA MTNS
$$

.............................NOTES.............................
THIS IS AN AUTOMATED COLLECTIVE WITH MINIMAL QUALITY CONTROL.
PIMA CO DEQ SITES HAVE NONSTANDARD WIND SENSOR HEIGHTS.
PIMA CO DEQ SITES DO NOT REPORT WIND GUSTS.
* INDICATES WIND SENSORS LOCATED AT 20 FEET INSTEAD OF 33 FEET.
..............................KEY..............................
SKY/WX - SKY CONDITION/WEATHER
TMP    - TEMPERATURE IN FAHRENHEIT
DP     - DEWPOINT IN FAHRENHEIT
RH     - RELATIVE HUMIDITY IN PERCENT
WIND   - DIRECTION AND SPEED IN MILES PER HOUR (MPH)
VRB    - VARIABLE WIND DIRECTION
PRES   - MEAN SEA LEVEL PRESSURE IN INCHES OF MERCURY
         F - FALLING PRESSURE   R - RISING PRESSURE
         S - STEADY PRESSURE
VSB    - VISIBILITY IN MILES
HX     - HEAT INDEX IN FAHRENHEIT
WCI    - WIND CHILL INDEX IN FAHRENHEIT
N/A    - NOT AVAILABLE
AFB    - AIR FORCE BASE
         DAVIS-MONTHAN IS DAVIS-MONTHAN AIR FORCE BASE
CYN    - CANYON
MTNS   - MOUNTAINS
NCA    - NATIONAL CONSERVATION AREA
NR     - NEAR
VLY    - VALLEY
CONTL  - CONTINENTAL
PIMA CO DEQ - PIMA COUNTY DEPT OF ENVIRONMENTAL QUALITY



USA.gov is the U.S. government's official web portal to all federal, state and local government web resources and services.